Year,Month,Day,Hour,Minute,Value (Times are PST for temperature in C)
2013,10,19,00,00,4.80
2013,10,19,00,01,4.80
2013,10,19,00,02,4.80
2013,10,19,00,03,4.80
2013,10,19,00,04,4.80
2013,10,19,00,05,4.80
2013,10,19,00,06,4.80
2013,10,19,00,07,4.80
2013,10,19,00,08,4.80
2013,10,19,00,09,4.80
2013,10,19,00,10,4.80
2013,10,19,00,11,4.80
2013,10,19,00,12,4.80
2013,10,19,00,13,4.80
2013,10,19,00,14,4.80
2013,10,19,00,15,4.80
2013,10,19,00,16,4.80
2013,10,19,00,17,4.80
2013,10,19,00,18,4.80
2013,10,19,00,19,4.80
2013,10,19,00,20,4.80
2013,10,19,00,21,4.80
2013,10,19,00,22,4.80
2013,10,19,00,23,4.80
2013,10,19,00,24,4.80
2013,10,19,00,25,4.80
2013,10,19,00,26,4.80
2013,10,19,00,27,4.80
2013,10,19,00,28,4.80
2013,10,19,00,29,4.80
2013,10,19,00,30,4.80
2013,10,19,00,31,4.80
2013,10,19,00,32,4.80
2013,10,19,00,33,4.70
2013,10,19,00,34,4.70
2013,10,19,00,35,4.70
2013,10,19,00,36,4.70
2013,10,19,00,37,4.70
2013,10,19,00,38,4.70
2013,10,19,00,39,4.70
2013,10,19,00,40,4.70
2013,10,19,00,41,4.70
2013,10,19,00,42,4.70
2013,10,19,00,43,4.70
2013,10,19,00,44,4.70
2013,10,19,00,45,4.70
2013,10,19,00,46,4.70
2013,10,19,00,47,4.70
2013,10,19,00,48,4.70
2013,10,19,00,49,4.70
2013,10,19,00,50,4.70
2013,10,19,00,51,4.70
2013,10,19,00,52,4.70
2013,10,19,00,53,4.70
2013,10,19,00,54,4.70
2013,10,19,00,55,4.70
2013,10,19,00,56,4.70
2013,10,19,00,57,4.70
2013,10,19,00,58,4.70
2013,10,19,00,59,4.70
2013,10,19,01,00,4.70
2013,10,19,01,01,4.70
2013,10,19,01,02,4.70
2013,10,19,01,03,4.70
2013,10,19,01,04,4.70
2013,10,19,01,05,4.70
2013,10,19,01,06,4.60
2013,10,19,01,07,4.60
2013,10,19,01,08,4.60
2013,10,19,01,09,4.60
2013,10,19,01,10,4.60
2013,10,19,01,11,4.60
2013,10,19,01,12,4.60
2013,10,19,01,13,4.60
2013,10,19,01,14,4.60
2013,10,19,01,15,4.60
2013,10,19,01,16,4.60
2013,10,19,01,17,4.60
2013,10,19,01,18,4.60
2013,10,19,01,19,4.60
2013,10,19,01,20,4.60
2013,10,19,01,21,4.60
2013,10,19,01,22,4.60
2013,10,19,01,23,4.60
2013,10,19,01,24,4.60
2013,10,19,01,25,4.60
2013,10,19,01,26,4.60
2013,10,19,01,27,4.60
2013,10,19,01,28,4.60
2013,10,19,01,29,4.70
2013,10,19,01,30,4.70
2013,10,19,01,31,4.70
2013,10,19,01,32,4.70
2013,10,19,01,33,4.70
2013,10,19,01,34,4.70
2013,10,19,01,35,4.70
2013,10,19,01,36,4.70
2013,10,19,01,37,4.70
2013,10,19,01,38,4.70
2013,10,19,01,39,4.70
2013,10,19,01,40,4.70
2013,10,19,01,41,4.70
2013,10,19,01,42,4.80
2013,10,19,01,43,4.80
2013,10,19,01,44,4.80
2013,10,19,01,45,4.80
2013,10,19,01,46,4.80
2013,10,19,01,47,4.80
2013,10,19,01,48,4.80
2013,10,19,01,49,4.80
2013,10,19,01,50,4.80
2013,10,19,01,51,4.80
2013,10,19,01,52,4.80
2013,10,19,01,53,4.80
2013,10,19,01,54,4.80
2013,10,19,01,55,4.80
2013,10,19,01,56,4.80
2013,10,19,01,57,4.80
2013,10,19,01,58,4.80
2013,10,19,01,59,4.80
2013,10,19,02,00,4.80
2013,10,19,02,01,4.80
2013,10,19,02,02,4.80
2013,10,19,02,03,4.80
2013,10,19,02,04,4.80
2013,10,19,02,05,4.80
2013,10,19,02,06,4.80
2013,10,19,02,07,4.80
2013,10,19,02,08,4.80
2013,10,19,02,09,4.80
2013,10,19,02,10,4.80
2013,10,19,02,11,4.80
2013,10,19,02,12,4.80
2013,10,19,02,13,4.80
2013,10,19,02,14,4.80
2013,10,19,02,15,4.80
2013,10,19,02,16,4.80
2013,10,19,02,17,4.80
2013,10,19,02,18,4.80
2013,10,19,02,19,4.80
2013,10,19,02,20,4.80
2013,10,19,02,21,4.90
2013,10,19,02,22,4.90
2013,10,19,02,23,4.90
2013,10,19,02,24,4.90
2013,10,19,02,25,4.90
2013,10,19,02,26,4.90
2013,10,19,02,27,4.90
2013,10,19,02,28,4.90
2013,10,19,02,29,4.90
2013,10,19,02,30,4.90
2013,10,19,02,31,4.90
2013,10,19,02,32,4.90
2013,10,19,02,33,5.00
2013,10,19,02,34,5.00
2013,10,19,02,35,5.00
2013,10,19,02,36,5.00
2013,10,19,02,37,5.00
2013,10,19,02,38,5.00
2013,10,19,02,39,5.00
2013,10,19,02,40,5.00
2013,10,19,02,41,5.00
2013,10,19,02,42,5.00
2013,10,19,02,43,5.00
2013,10,19,02,44,5.00
2013,10,19,02,45,5.00
2013,10,19,02,46,5.00
2013,10,19,02,47,5.00
2013,10,19,02,48,5.00
2013,10,19,02,49,5.00
2013,10,19,02,50,5.00
2013,10,19,02,51,5.00
2013,10,19,02,52,5.00
2013,10,19,02,53,4.90
2013,10,19,02,54,4.90
2013,10,19,02,55,4.90
2013,10,19,02,56,4.90
2013,10,19,02,57,4.90
2013,10,19,02,58,4.90
2013,10,19,02,59,4.90
2013,10,19,03,00,4.90
2013,10,19,03,01,4.90
2013,10,19,03,02,4.90
2013,10,19,03,03,5.00
2013,10,19,03,04,5.00
2013,10,19,03,05,5.00
2013,10,19,03,06,5.00
2013,10,19,03,07,5.00
2013,10,19,03,08,5.00
2013,10,19,03,09,5.00
2013,10,19,03,10,5.00
2013,10,19,03,11,5.00
2013,10,19,03,12,5.00
2013,10,19,03,13,4.90
2013,10,19,03,14,4.90
2013,10,19,03,15,4.90
2013,10,19,03,16,4.90
2013,10,19,03,17,4.90
2013,10,19,03,18,4.90
2013,10,19,03,19,4.90
2013,10,19,03,20,4.90
2013,10,19,03,21,4.90
2013,10,19,03,22,4.90
2013,10,19,03,23,4.90
2013,10,19,03,24,4.90
2013,10,19,03,25,4.90
2013,10,19,03,26,4.90
2013,10,19,03,27,4.90
2013,10,19,03,28,4.90
2013,10,19,03,29,4.90
2013,10,19,03,30,5.00
2013,10,19,03,31,5.00
2013,10,19,03,32,5.00
2013,10,19,03,33,5.00
2013,10,19,03,34,5.00
2013,10,19,03,35,5.00
2013,10,19,03,36,5.00
2013,10,19,03,37,5.10
2013,10,19,03,38,5.10
2013,10,19,03,39,5.10
2013,10,19,03,40,5.10
2013,10,19,03,41,5.10
2013,10,19,03,42,5.10
2013,10,19,03,43,5.10
2013,10,19,03,44,5.10
2013,10,19,03,45,5.10
2013,10,19,03,46,5.10
2013,10,19,03,47,5.10
2013,10,19,03,48,5.20
2013,10,19,03,49,5.20
2013,10,19,03,50,5.30
2013,10,19,03,51,5.30
2013,10,19,03,52,5.20
2013,10,19,03,53,5.20
2013,10,19,03,54,5.30
2013,10,19,03,55,5.30
2013,10,19,03,56,5.30
2013,10,19,03,57,5.30
2013,10,19,03,58,5.30
2013,10,19,03,59,5.30
2013,10,19,04,00,5.30
2013,10,19,04,01,5.30
2013,10,19,04,02,5.40
2013,10,19,04,03,5.40
2013,10,19,04,04,5.40
2013,10,19,04,05,5.40
2013,10,19,04,06,5.40
2013,10,19,04,07,5.50
2013,10,19,04,08,5.50
2013,10,19,04,09,5.50
2013,10,19,04,10,5.50
2013,10,19,04,11,5.50
2013,10,19,04,12,5.50
2013,10,19,04,13,5.50
2013,10,19,04,14,5.50
2013,10,19,04,15,5.50
2013,10,19,04,16,5.50
2013,10,19,04,17,5.50
2013,10,19,04,18,5.50
2013,10,19,04,19,5.60
2013,10,19,04,20,5.60
2013,10,19,04,21,5.60
2013,10,19,04,22,5.60
2013,10,19,04,23,5.60
2013,10,19,04,24,5.60
2013,10,19,04,25,5.60
2013,10,19,04,26,5.60
2013,10,19,04,27,5.60
2013,10,19,04,28,5.60
2013,10,19,04,29,5.60
2013,10,19,04,30,5.60
2013,10,19,04,31,5.60
2013,10,19,04,32,5.60
2013,10,19,04,33,5.60
2013,10,19,04,34,5.60
2013,10,19,04,35,5.60
2013,10,19,04,36,5.60
2013,10,19,04,37,5.60
2013,10,19,04,38,5.60
2013,10,19,04,39,5.60
2013,10,19,04,40,5.60
2013,10,19,04,41,5.60
2013,10,19,04,42,5.60
2013,10,19,04,43,5.60
2013,10,19,04,44,5.60
2013,10,19,04,45,5.60
2013,10,19,04,46,5.70
2013,10,19,04,47,5.70
2013,10,19,04,48,5.70
2013,10,19,04,49,5.70
2013,10,19,04,50,5.70
2013,10,19,04,51,5.70
2013,10,19,04,52,5.80
2013,10,19,04,53,5.80
2013,10,19,04,54,5.90
2013,10,19,04,55,5.90
2013,10,19,04,56,5.90
2013,10,19,04,57,6.00
2013,10,19,04,58,6.00
2013,10,19,04,59,6.10
2013,10,19,05,00,6.10
2013,10,19,05,01,6.10
2013,10,19,05,02,6.10
2013,10,19,05,03,6.10
2013,10,19,05,04,6.10
2013,10,19,05,05,6.20
2013,10,19,05,06,6.20
2013,10,19,05,07,6.20
2013,10,19,05,08,6.20
2013,10,19,05,09,6.20
2013,10,19,05,10,6.20
2013,10,19,05,11,6.20
2013,10,19,05,12,6.20
2013,10,19,05,13,6.20
2013,10,19,05,14,6.20
2013,10,19,05,15,6.20
2013,10,19,05,16,6.20
2013,10,19,05,17,6.20
2013,10,19,05,18,6.20
2013,10,19,05,19,6.20
2013,10,19,05,20,6.20
2013,10,19,05,21,6.20
2013,10,19,05,22,6.20
2013,10,19,05,23,6.20
2013,10,19,05,24,6.20
2013,10,19,05,25,6.20
2013,10,19,05,26,6.20
2013,10,19,05,27,6.30
2013,10,19,05,28,6.30
2013,10,19,05,29,6.30
2013,10,19,05,30,6.30
2013,10,19,05,31,6.30
2013,10,19,05,32,6.30
2013,10,19,05,33,6.30
2013,10,19,05,34,6.30
2013,10,19,05,35,6.30
2013,10,19,05,36,6.30
2013,10,19,05,37,6.30
2013,10,19,05,38,6.30
2013,10,19,05,39,6.30
2013,10,19,05,40,6.30
2013,10,19,05,41,6.30
2013,10,19,05,42,6.30
2013,10,19,05,43,6.30
2013,10,19,05,44,6.30
2013,10,19,05,45,6.30
2013,10,19,05,46,6.30
2013,10,19,05,47,6.40
2013,10,19,05,48,6.40
2013,10,19,05,49,6.40
2013,10,19,05,50,6.40
2013,10,19,05,51,6.40
2013,10,19,05,52,6.40
2013,10,19,05,53,6.40
2013,10,19,05,54,6.40
2013,10,19,05,55,6.40
2013,10,19,05,56,6.40
2013,10,19,05,57,6.40
2013,10,19,05,58,6.40
2013,10,19,05,59,6.40
2013,10,19,06,00,6.40
2013,10,19,06,01,6.50
2013,10,19,06,02,6.50
2013,10,19,06,03,6.50
2013,10,19,06,04,6.50
2013,10,19,06,05,6.60
2013,10,19,06,06,6.60
2013,10,19,06,07,6.70
2013,10,19,06,08,6.70
2013,10,19,06,09,6.80
2013,10,19,06,10,6.80
2013,10,19,06,11,6.80
2013,10,19,06,12,6.80
2013,10,19,06,13,6.90
2013,10,19,06,14,6.90
2013,10,19,06,15,6.90
2013,10,19,06,16,6.80
2013,10,19,06,17,6.90
2013,10,19,06,18,6.90
2013,10,19,06,19,7.00
2013,10,19,06,20,7.00
2013,10,19,06,21,7.10
2013,10,19,06,22,7.10
2013,10,19,06,23,7.10
2013,10,19,06,24,7.20
2013,10,19,06,25,7.20
2013,10,19,06,26,7.20
2013,10,19,06,27,7.30
2013,10,19,06,28,7.30
2013,10,19,06,29,7.30
2013,10,19,06,30,7.30
2013,10,19,06,31,7.30
2013,10,19,06,32,7.30
2013,10,19,06,33,7.30
2013,10,19,06,34,7.30
2013,10,19,06,35,7.30
2013,10,19,06,36,7.30
2013,10,19,06,37,7.30
2013,10,19,06,38,7.30
2013,10,19,06,39,7.30
2013,10,19,06,40,7.40
2013,10,19,06,41,7.40
2013,10,19,06,42,7.40
2013,10,19,06,43,7.40
2013,10,19,06,44,7.40
2013,10,19,06,45,7.40
2013,10,19,06,46,7.40
2013,10,19,06,47,7.40
2013,10,19,06,48,7.50
2013,10,19,06,49,7.50
2013,10,19,06,50,7.50
2013,10,19,06,51,7.50
2013,10,19,06,52,7.50
2013,10,19,06,53,7.50
2013,10,19,06,54,7.50
2013,10,19,06,55,7.50
2013,10,19,06,56,7.50
2013,10,19,06,57,7.50
2013,10,19,06,58,7.50
2013,10,19,06,59,7.50
2013,10,19,07,00,7.50
2013,10,19,07,01,7.50
2013,10,19,07,02,7.60
2013,10,19,07,03,7.60
2013,10,19,07,04,7.60
2013,10,19,07,05,7.60
2013,10,19,07,06,7.60
2013,10,19,07,07,7.60
2013,10,19,07,08,7.60
2013,10,19,07,09,7.60
2013,10,19,07,10,7.60
2013,10,19,07,11,7.60
2013,10,19,07,12,7.60
2013,10,19,07,13,7.60
2013,10,19,07,14,7.60
2013,10,19,07,15,7.60
2013,10,19,07,16,7.50
2013,10,19,07,17,7.50
2013,10,19,07,18,7.50
2013,10,19,07,19,7.50
2013,10,19,07,20,7.50
2013,10,19,07,21,7.40
2013,10,19,07,22,7.40
2013,10,19,07,23,7.40
2013,10,19,07,24,7.40
2013,10,19,07,25,7.40
2013,10,19,07,26,7.40
2013,10,19,07,27,7.40
2013,10,19,07,28,7.40
2013,10,19,07,29,7.50
2013,10,19,07,30,7.50
2013,10,19,07,31,7.50
2013,10,19,07,32,7.50
2013,10,19,07,33,7.50
2013,10,19,07,34,7.50
2013,10,19,07,35,7.50
2013,10,19,07,36,7.50
2013,10,19,07,37,7.50
2013,10,19,07,38,7.50
2013,10,19,07,39,7.50
2013,10,19,07,40,7.50
2013,10,19,07,41,7.50
2013,10,19,07,42,7.60
2013,10,19,07,43,7.60
2013,10,19,07,44,7.60
2013,10,19,07,45,7.60
2013,10,19,07,46,7.60
2013,10,19,07,47,7.60
2013,10,19,07,48,7.60
2013,10,19,07,49,7.60
2013,10,19,07,50,7.60
2013,10,19,07,51,7.60
2013,10,19,07,52,7.60
2013,10,19,07,53,7.60
2013,10,19,07,54,7.60
2013,10,19,07,55,7.60
2013,10,19,07,56,7.60
2013,10,19,07,57,7.60
2013,10,19,07,58,7.60
2013,10,19,07,59,7.60
2013,10,19,08,00,7.60
2013,10,19,08,01,7.60
2013,10,19,08,02,7.60
2013,10,19,08,03,7.60
2013,10,19,08,04,7.60
2013,10,19,08,05,7.60
2013,10,19,08,06,7.60
2013,10,19,08,07,7.60
2013,10,19,08,08,7.60
2013,10,19,08,09,7.70
2013,10,19,08,10,7.70
2013,10,19,08,11,7.70
2013,10,19,08,12,7.70
2013,10,19,08,13,7.70
2013,10,19,08,14,7.70
2013,10,19,08,15,7.70
2013,10,19,08,16,7.70
2013,10,19,08,17,7.70
2013,10,19,08,18,7.70
2013,10,19,08,19,7.70
2013,10,19,08,20,7.70
2013,10,19,08,21,7.70
2013,10,19,08,22,7.70
2013,10,19,08,23,7.70
2013,10,19,08,24,7.70
2013,10,19,08,25,7.70
2013,10,19,08,26,7.70
2013,10,19,08,27,7.70
2013,10,19,08,28,7.70
2013,10,19,08,29,7.70
2013,10,19,08,30,7.70
2013,10,19,08,31,7.70
2013,10,19,08,32,7.70
2013,10,19,08,33,7.70
2013,10,19,08,34,7.70
2013,10,19,08,35,7.70
2013,10,19,08,36,7.70
2013,10,19,08,37,7.70
2013,10,19,08,38,7.70
2013,10,19,08,39,7.70
2013,10,19,08,40,7.80
2013,10,19,08,41,7.80
2013,10,19,08,42,7.80
2013,10,19,08,43,7.80
2013,10,19,08,44,7.80
2013,10,19,08,45,7.80
2013,10,19,08,46,7.80
2013,10,19,08,47,7.80
2013,10,19,08,48,7.80
2013,10,19,08,49,7.80
2013,10,19,08,50,7.80
2013,10,19,08,51,7.80
2013,10,19,08,52,7.80
2013,10,19,08,53,7.80
2013,10,19,08,54,7.80
2013,10,19,08,55,7.80
2013,10,19,08,56,7.80
2013,10,19,08,57,7.80
2013,10,19,08,58,7.80
2013,10,19,08,59,7.80
2013,10,19,09,00,7.80
2013,10,19,09,01,7.80
2013,10,19,09,02,7.80
2013,10,19,09,03,7.80
2013,10,19,09,04,7.80
2013,10,19,09,05,7.80
2013,10,19,09,06,7.80
2013,10,19,09,07,7.80
2013,10,19,09,08,7.80
2013,10,19,09,09,7.80
2013,10,19,09,10,7.80
2013,10,19,09,11,7.80
2013,10,19,09,12,7.80
2013,10,19,09,13,7.80
2013,10,19,09,14,7.80
2013,10,19,09,15,7.80
2013,10,19,09,16,7.80
2013,10,19,09,17,7.80
2013,10,19,09,18,7.80
2013,10,19,09,19,7.80
2013,10,19,09,20,7.80
2013,10,19,09,21,7.80
2013,10,19,09,22,7.80
2013,10,19,09,23,7.80
2013,10,19,09,24,7.80
2013,10,19,09,25,7.80
2013,10,19,09,26,7.80
2013,10,19,09,27,7.80
2013,10,19,09,28,7.80
2013,10,19,09,29,7.80
2013,10,19,09,30,7.80
2013,10,19,09,31,7.80
2013,10,19,09,32,7.80
2013,10,19,09,33,7.80
2013,10,19,09,34,7.80
2013,10,19,09,35,7.80
2013,10,19,09,36,7.80
2013,10,19,09,37,7.80
2013,10,19,09,38,7.90
2013,10,19,09,39,7.90
2013,10,19,09,40,7.90
2013,10,19,09,41,7.90
2013,10,19,09,42,7.90
2013,10,19,09,43,8.00
2013,10,19,09,44,8.00
2013,10,19,09,45,8.00
2013,10,19,09,46,8.00
2013,10,19,09,47,8.00
2013,10,19,09,48,8.00
2013,10,19,09,49,7.90
2013,10,19,09,50,7.90
2013,10,19,09,51,7.90
2013,10,19,09,52,7.90
2013,10,19,09,53,7.90
2013,10,19,09,54,7.90
2013,10,19,09,55,7.90
2013,10,19,09,56,7.90
2013,10,19,09,57,8.00
2013,10,19,09,58,8.00
2013,10,19,09,59,8.00
2013,10,19,10,00,8.10
2013,10,19,10,01,8.10
2013,10,19,10,02,8.10
2013,10,19,10,03,8.20
2013,10,19,10,04,8.20
2013,10,19,10,05,8.20
2013,10,19,10,06,8.20
2013,10,19,10,07,8.20
2013,10,19,10,08,8.30
2013,10,19,10,09,8.30
2013,10,19,10,10,8.30
2013,10,19,10,11,8.30
2013,10,19,10,12,8.30
2013,10,19,10,13,8.30
2013,10,19,10,14,8.30
2013,10,19,10,15,8.30
2013,10,19,10,16,8.30
2013,10,19,10,17,8.30
2013,10,19,10,18,8.30
2013,10,19,10,19,8.30
2013,10,19,10,20,8.30
2013,10,19,10,21,8.30
2013,10,19,10,22,8.30
2013,10,19,10,23,8.30
2013,10,19,10,24,8.30
2013,10,19,10,25,8.30
2013,10,19,10,26,8.30
2013,10,19,10,27,8.30
2013,10,19,10,28,8.30
2013,10,19,10,29,8.30
2013,10,19,10,30,8.30
2013,10,19,10,31,8.30
2013,10,19,10,32,8.30
2013,10,19,10,33,8.30
2013,10,19,10,34,8.30
2013,10,19,10,35,8.30
2013,10,19,10,36,8.40
2013,10,19,10,37,8.40
2013,10,19,10,38,8.40
2013,10,19,10,39,8.50
2013,10,19,10,40,8.50
2013,10,19,10,41,8.50
2013,10,19,10,42,8.50
2013,10,19,10,43,8.50
2013,10,19,10,44,8.50
2013,10,19,10,45,8.50
2013,10,19,10,46,8.50
2013,10,19,10,47,8.50
2013,10,19,10,48,8.50
2013,10,19,10,49,8.50
2013,10,19,10,50,8.50
2013,10,19,10,51,8.50
2013,10,19,10,52,8.40
2013,10,19,10,53,8.40
2013,10,19,10,54,8.30
2013,10,19,10,55,8.30
2013,10,19,10,56,8.30
2013,10,19,10,57,8.30
2013,10,19,10,58,8.30
2013,10,19,10,59,8.30
2013,10,19,11,00,8.30
2013,10,19,11,01,8.30
2013,10,19,11,02,8.30
2013,10,19,11,03,8.40
2013,10,19,11,04,8.40
2013,10,19,11,05,8.40
2013,10,19,11,06,8.40
2013,10,19,11,07,8.40
2013,10,19,11,08,8.50
2013,10,19,11,09,8.50
2013,10,19,11,10,8.60
2013,10,19,11,11,8.60
2013,10,19,11,12,8.60
2013,10,19,11,13,8.70
2013,10,19,11,14,8.70
2013,10,19,11,15,8.70
2013,10,19,11,16,8.70
2013,10,19,11,17,8.70
2013,10,19,11,18,8.70
2013,10,19,11,19,8.70
2013,10,19,11,20,8.70
2013,10,19,11,21,8.70
2013,10,19,11,22,8.70
2013,10,19,11,23,8.70
2013,10,19,11,24,8.70
2013,10,19,11,25,8.70
2013,10,19,11,26,8.70
2013,10,19,11,27,8.70
2013,10,19,11,28,8.60
2013,10,19,11,29,8.60
2013,10,19,11,30,8.60
2013,10,19,11,31,8.60
2013,10,19,11,32,8.60
2013,10,19,11,33,8.60
2013,10,19,11,34,8.60
2013,10,19,11,35,8.60
2013,10,19,11,36,8.60
2013,10,19,11,37,8.60
2013,10,19,11,38,8.60
2013,10,19,11,39,8.60
2013,10,19,11,40,8.60
2013,10,19,11,41,8.60
2013,10,19,11,42,8.60
2013,10,19,11,43,8.60
2013,10,19,11,44,8.60
2013,10,19,11,45,8.60
2013,10,19,11,46,8.60
2013,10,19,11,47,8.70
2013,10,19,11,48,8.70
2013,10,19,11,49,8.70
2013,10,19,11,50,8.80
2013,10,19,11,51,8.80
2013,10,19,11,52,8.80
2013,10,19,11,53,8.90
2013,10,19,11,54,8.90
2013,10,19,11,55,8.90
2013,10,19,11,56,8.90
2013,10,19,11,57,8.80
2013,10,19,11,58,8.80
2013,10,19,11,59,8.80
2013,10,19,12,00,8.80
2013,10,19,12,01,8.90
2013,10,19,12,02,8.90
2013,10,19,12,03,8.90
2013,10,19,12,04,8.80
2013,10,19,12,05,8.70
2013,10,19,12,06,8.70
2013,10,19,12,07,8.60
2013,10,19,12,08,8.50
2013,10,19,12,09,8.40
2013,10,19,12,10,8.40
2013,10,19,12,11,8.40
2013,10,19,12,12,8.40
2013,10,19,12,13,8.40
2013,10,19,12,14,8.30
2013,10,19,12,15,8.30
2013,10,19,12,16,8.30
2013,10,19,12,17,8.30
2013,10,19,12,18,8.30
2013,10,19,12,19,8.30
2013,10,19,12,20,8.30
2013,10,19,12,21,8.30
2013,10,19,12,22,8.30
2013,10,19,12,23,8.30
2013,10,19,12,24,8.30
2013,10,19,12,25,8.30
2013,10,19,12,26,8.40
2013,10,19,12,27,8.40
2013,10,19,12,28,8.30
2013,10,19,12,29,8.30
2013,10,19,12,30,8.30
2013,10,19,12,31,8.30
2013,10,19,12,32,8.30
2013,10,19,12,33,8.30
2013,10,19,12,34,8.30
2013,10,19,12,35,8.40
2013,10,19,12,36,8.40
2013,10,19,12,37,8.40
2013,10,19,12,38,8.40
2013,10,19,12,39,8.50
2013,10,19,12,40,8.50
2013,10,19,12,41,8.50
2013,10,19,12,42,8.50
2013,10,19,12,43,8.50
2013,10,19,12,44,8.40
2013,10,19,12,45,8.50
2013,10,19,12,46,8.50
2013,10,19,12,47,8.50
2013,10,19,12,48,8.60
2013,10,19,12,49,8.60
2013,10,19,12,50,8.60
2013,10,19,12,51,8.60
2013,10,19,12,52,8.60
2013,10,19,12,53,8.70
2013,10,19,12,54,8.70
2013,10,19,12,55,8.70
2013,10,19,12,56,8.70
2013,10,19,12,57,8.80
2013,10,19,12,58,8.80
2013,10,19,12,59,8.80
2013,10,19,13,00,8.80
2013,10,19,13,01,8.80
2013,10,19,13,02,8.80
2013,10,19,13,03,8.80
2013,10,19,13,04,8.90
2013,10,19,13,05,8.90
2013,10,19,13,06,8.90
2013,10,19,13,07,8.90
2013,10,19,13,08,8.90
2013,10,19,13,09,8.90
2013,10,19,13,10,8.90
2013,10,19,13,11,8.90
2013,10,19,13,12,8.90
2013,10,19,13,13,8.90
2013,10,19,13,14,8.90
2013,10,19,13,15,8.90
2013,10,19,13,16,8.90
2013,10,19,13,17,8.90
2013,10,19,13,18,9.00
2013,10,19,13,19,9.00
2013,10,19,13,20,9.00
2013,10,19,13,21,9.10
2013,10,19,13,22,9.10
2013,10,19,13,23,9.20
2013,10,19,13,24,9.20
2013,10,19,13,25,9.20
2013,10,19,13,26,9.20
2013,10,19,13,27,9.30
2013,10,19,13,28,9.30
2013,10,19,13,29,9.30
2013,10,19,13,30,9.30
2013,10,19,13,31,9.20
2013,10,19,13,32,9.20
2013,10,19,13,33,9.20
2013,10,19,13,34,9.20
2013,10,19,13,35,9.20
2013,10,19,13,36,9.20
2013,10,19,13,37,9.20
2013,10,19,13,38,9.20
2013,10,19,13,39,9.20
2013,10,19,13,40,9.20
2013,10,19,13,41,9.30
2013,10,19,13,42,9.30
2013,10,19,13,43,9.30
2013,10,19,13,44,9.30
2013,10,19,13,45,9.30
2013,10,19,13,46,9.30
2013,10,19,13,47,9.30
2013,10,19,13,48,9.30
2013,10,19,13,49,9.30
2013,10,19,13,50,9.30
2013,10,19,13,51,9.30
2013,10,19,13,52,9.30
2013,10,19,13,53,9.30
2013,10,19,13,54,9.40
2013,10,19,13,55,9.40
2013,10,19,13,56,9.50
2013,10,19,13,57,9.50
2013,10,19,13,58,9.60
2013,10,19,13,59,9.60
2013,10,19,14,00,9.60
2013,10,19,14,01,9.70
2013,10,19,14,02,9.70
2013,10,19,14,03,9.80
2013,10,19,14,04,9.80
2013,10,19,14,05,9.80
2013,10,19,14,06,9.80
2013,10,19,14,07,9.80
2013,10,19,14,08,9.80
2013,10,19,14,09,9.80
2013,10,19,14,10,9.80
2013,10,19,14,11,9.80
2013,10,19,14,12,9.80
2013,10,19,14,13,9.80
2013,10,19,14,14,9.80
2013,10,19,14,15,9.80
2013,10,19,14,16,9.80
2013,10,19,14,17,9.80
2013,10,19,14,18,9.80
2013,10,19,14,19,9.70
2013,10,19,14,20,9.70
2013,10,19,14,21,9.70
2013,10,19,14,22,9.80
2013,10,19,14,23,9.80
2013,10,19,14,24,9.80
2013,10,19,14,25,9.80
2013,10,19,14,26,9.80
2013,10,19,14,27,9.80
2013,10,19,14,28,9.80
2013,10,19,14,29,9.80
2013,10,19,14,30,9.80
2013,10,19,14,31,9.80
2013,10,19,14,32,9.80
2013,10,19,14,33,9.80
2013,10,19,14,34,9.80
2013,10,19,14,35,9.80
2013,10,19,14,36,9.90
2013,10,19,14,37,9.90
2013,10,19,14,38,10.00
2013,10,19,14,39,10.00
2013,10,19,14,40,10.10
2013,10,19,14,41,10.10
2013,10,19,14,42,10.10
2013,10,19,14,43,10.10
2013,10,19,14,44,10.10
2013,10,19,14,45,10.10
2013,10,19,14,46,10.00
2013,10,19,14,47,10.00
2013,10,19,14,48,9.90
2013,10,19,14,49,9.80
2013,10,19,14,50,9.80
2013,10,19,14,51,9.80
2013,10,19,14,52,9.80
2013,10,19,14,53,9.80
2013,10,19,14,54,9.70
2013,10,19,14,55,9.70
2013,10,19,14,56,9.70
2013,10,19,14,57,9.70
2013,10,19,14,58,9.60
2013,10,19,14,59,9.60
2013,10,19,15,00,9.60
2013,10,19,15,01,9.60
2013,10,19,15,02,9.60
2013,10,19,15,03,9.60
2013,10,19,15,04,9.60
2013,10,19,15,05,9.60
2013,10,19,15,06,9.60
2013,10,19,15,07,9.60
2013,10,19,15,08,9.60
2013,10,19,15,09,9.60
2013,10,19,15,10,9.60
2013,10,19,15,11,9.60
2013,10,19,15,12,9.60
2013,10,19,15,13,9.60
2013,10,19,15,14,9.60
2013,10,19,15,15,9.60
2013,10,19,15,16,9.60
2013,10,19,15,17,9.60
2013,10,19,15,18,9.60
2013,10,19,15,19,9.60
2013,10,19,15,20,9.60
2013,10,19,15,21,9.60
2013,10,19,15,22,9.60
2013,10,19,15,23,9.70
2013,10,19,15,24,9.70
2013,10,19,15,25,9.70
2013,10,19,15,26,9.70
2013,10,19,15,27,9.70
2013,10,19,15,28,9.70
2013,10,19,15,29,9.80
2013,10,19,15,30,9.80
2013,10,19,15,31,9.80
2013,10,19,15,32,9.80
2013,10,19,15,33,9.80
2013,10,19,15,34,9.80
2013,10,19,15,35,9.80
2013,10,19,15,36,9.80
2013,10,19,15,37,9.80
2013,10,19,15,38,9.80
2013,10,19,15,39,9.80
2013,10,19,15,40,9.80
2013,10,19,15,41,9.80
2013,10,19,15,42,9.80
2013,10,19,15,43,9.80
2013,10,19,15,44,9.80
2013,10,19,15,45,9.80
2013,10,19,15,46,9.80
2013,10,19,15,47,9.80
2013,10,19,15,48,9.80
2013,10,19,15,49,9.80
2013,10,19,15,50,9.80
2013,10,19,15,51,9.80
2013,10,19,15,52,9.80
2013,10,19,15,53,9.80
2013,10,19,15,54,9.80
2013,10,19,15,55,9.80
2013,10,19,15,56,9.80
2013,10,19,15,57,9.90
2013,10,19,15,58,9.90
2013,10,19,15,59,9.90
2013,10,19,16,00,9.90
2013,10,19,16,01,9.90
2013,10,19,16,02,9.90
2013,10,19,16,03,9.90
2013,10,19,16,04,9.90
2013,10,19,16,05,9.80
2013,10,19,16,06,9.80
2013,10,19,16,07,9.80
2013,10,19,16,08,9.80
2013,10,19,16,09,9.80
2013,10,19,16,10,9.80
2013,10,19,16,11,9.80
2013,10,19,16,12,9.80
2013,10,19,16,13,9.80
2013,10,19,16,14,9.70
2013,10,19,16,15,9.70
2013,10,19,16,16,9.70
2013,10,19,16,17,9.70
2013,10,19,16,18,9.60
2013,10,19,16,19,9.60
2013,10,19,16,20,9.60
2013,10,19,16,21,9.60
2013,10,19,16,22,9.60
2013,10,19,16,23,9.60
2013,10,19,16,24,9.60
2013,10,19,16,25,9.60
2013,10,19,16,26,9.50
2013,10,19,16,27,9.50
2013,10,19,16,28,9.50
2013,10,19,16,29,9.50
2013,10,19,16,30,9.50
2013,10,19,16,31,9.50
2013,10,19,16,32,9.50
2013,10,19,16,33,9.50
2013,10,19,16,34,9.50
2013,10,19,16,35,9.50
2013,10,19,16,36,9.50
2013,10,19,16,37,9.50
2013,10,19,16,38,9.50
2013,10,19,16,39,9.50
2013,10,19,16,40,9.60
2013,10,19,16,41,9.60
2013,10,19,16,42,9.60
2013,10,19,16,43,9.60
2013,10,19,16,44,9.60
2013,10,19,16,45,9.60
2013,10,19,16,46,9.60
2013,10,19,16,47,9.60
2013,10,19,16,48,9.60
2013,10,19,16,49,9.60
2013,10,19,16,50,9.60
2013,10,19,16,51,9.60
2013,10,19,16,52,9.60
2013,10,19,16,53,9.60
2013,10,19,16,54,9.60
2013,10,19,16,55,9.60
2013,10,19,16,56,9.60
2013,10,19,16,57,9.50
2013,10,19,16,58,9.50
2013,10,19,16,59,9.50
2013,10,19,17,00,9.50
2013,10,19,17,01,9.50
2013,10,19,17,02,9.50
2013,10,19,17,03,9.60
2013,10,19,17,04,9.60
2013,10,19,17,05,9.60
2013,10,19,17,06,9.60
2013,10,19,17,07,9.60
2013,10,19,17,08,9.60
2013,10,19,17,09,9.60
2013,10,19,17,10,9.50
2013,10,19,17,11,9.50
2013,10,19,17,12,9.40
2013,10,19,17,13,9.40
2013,10,19,17,14,9.40
2013,10,19,17,15,9.40
2013,10,19,17,16,9.40
2013,10,19,17,17,9.40
2013,10,19,17,18,9.40
2013,10,19,17,19,9.40
2013,10,19,17,20,9.30
2013,10,19,17,21,9.30
2013,10,19,17,22,9.30
2013,10,19,17,23,9.30
2013,10,19,17,24,9.30
2013,10,19,17,25,9.30
2013,10,19,17,26,9.30
2013,10,19,17,27,9.30
2013,10,19,17,28,9.30
2013,10,19,17,29,9.30
2013,10,19,17,30,9.30
2013,10,19,17,31,9.30
2013,10,19,17,32,9.30
2013,10,19,17,33,9.30
2013,10,19,17,34,9.30
2013,10,19,17,35,9.30
2013,10,19,17,36,9.30
2013,10,19,17,37,9.30
2013,10,19,17,38,9.30
2013,10,19,17,39,9.30
2013,10,19,17,40,9.30
2013,10,19,17,41,9.30
2013,10,19,17,42,9.30
2013,10,19,17,43,9.30
2013,10,19,17,44,9.20
2013,10,19,17,45,9.20
2013,10,19,17,46,9.20
2013,10,19,17,47,9.20
2013,10,19,17,48,9.20
2013,10,19,17,49,9.20
2013,10,19,17,50,9.20
2013,10,19,17,51,9.20
2013,10,19,17,52,9.20
2013,10,19,17,53,9.20
2013,10,19,17,54,9.20
2013,10,19,17,55,9.20
2013,10,19,17,56,9.20
2013,10,19,17,57,9.20
2013,10,19,17,58,9.20
2013,10,19,17,59,9.20
2013,10,19,18,00,9.20
2013,10,19,18,01,9.20
2013,10,19,18,02,9.20
2013,10,19,18,03,9.20
2013,10,19,18,04,9.20
2013,10,19,18,05,9.20
2013,10,19,18,06,9.20